STARLINK-35711

Last updated on Wed Dec 31 2025 00:02:06 GMT+0000 (Coordinated Universal Time)

1 66595U 25270H 25364.57202597 .00126151 00000+0 29782-2 0 9999 2 66595 43.0006 89.2504 0001122 281.7711 78.3020 15.40692715 7217
UTC large
Height (km)
Speed (km/s)
/
Latitude / Longitude
Inclination (degrees)
Orbital Period (minutes)
Azimuth
Elevation
Range (km)
Doppler Factor

Next 0 passes for location: London (51.5072 / 0.1276)

Sorry there are no passes over London.